Location: Chequamegon National Forest
(46.1070°N, 90.8420°W)
Time: 17:23:24
(UTC-05:00)

ISS - All Passes

Search period start: 18 October 2017 00:00
Search period end: 28 October 2017 00:00
Orbit: 401 x 408 km, 51.6° (Epoch: 19 October)

Date Brightness Start Highest point End Pass type
(mag) Time Alt. Az. Time Alt. Az. Time Alt. Az.
18 Oct - 11:42:03 10° SW 11:45:10 44° SE 11:48:19 10° ENE daylight
18 Oct - 13:18:33 10° W 13:21:41 42° NNW 13:24:49 10° ENE daylight
18 Oct - 14:55:44 10° WNW 14:58:40 30° N 15:01:36 10° ENE daylight
18 Oct - 16:32:16 10° WNW 16:35:31 63° NNE 16:38:47 10° ESE daylight
18 Oct - 18:09:06 10° W 18:11:48 24° SW 18:14:29 10° SSE daylight
19 Oct - 10:50:14 10° SSW 10:53:00 26° SE 10:55:47 10° E daylight
19 Oct - 12:26:05 10° WSW 12:29:18 58° NNW 12:32:32 10° ENE daylight
19 Oct - 14:03:16 10° WNW 14:06:12 29° N 14:09:08 10° ENE daylight
19 Oct - 15:40:00 10° WNW 15:43:10 44° NNE 15:46:20 10° E daylight
19 Oct - 17:16:32 10° WNW 17:19:38 40° SW 17:22:44 10° SE daylight
20 Oct - 09:58:56 10° S 10:00:54 15° SE 10:02:53 10° E daylight
20 Oct - 11:33:42 10° WSW 11:36:58 89° NNW 11:40:15 10° ENE daylight
20 Oct - 13:10:44 10° WNW 13:13:43 32° N 13:16:43 10° ENE daylight
20 Oct - 14:47:41 10° WNW 14:50:44 35° NNE 14:53:47 10° E daylight
20 Oct - 16:24:08 10° WNW 16:27:24 70° SSW 16:30:40 10° SE daylight
20 Oct - 18:02:17 10° WSW 18:03:21 11° SW 18:04:24 10° SSW daylight
21 Oct - 10:41:30 10° SW 10:44:41 54° SSE 10:47:53 10° ENE daylight
21 Oct - 12:18:11 10° W 12:21:16 38° NNW 12:24:22 10° ENE daylight
21 Oct - 13:55:18 10° WNW 13:58:15 30° N 14:01:13 10° ENE daylight
21 Oct - 15:31:49 10° WNW 15:35:05 73° NNE 15:38:21 10° ESE daylight
21 Oct - 17:08:49 10° W 17:11:16 20° SW 17:13:42 10° S daylight
22 Oct - 09:49:33 10° SSW 09:52:28 31° SE 09:55:24 10° ENE daylight
22 Oct - 11:25:38 10° W 11:28:50 51° NNW 11:32:02 10° ENE daylight
22 Oct - 13:02:50 10° WNW 13:05:45 29° N 13:08:41 10° ENE daylight
22 Oct - 14:39:30 10° WNW 14:42:41 49° NNE 14:45:53 10° E daylight
22 Oct - 16:16:06 10° WNW 16:19:06 33° SW 16:22:04 10° SSE daylight
23 Oct - 08:57:59 10° S 09:00:18 18° SE 09:02:37 10° E daylight
23 Oct - 10:33:11 10° WSW 10:36:26 77° NNW 10:39:43 10° ENE daylight
23 Oct - 12:10:17 10° WNW 12:13:14 31° N 12:16:13 10° ENE daylight
23 Oct - 13:47:10 10° WNW 13:50:14 37° NNE 13:53:19 10° E daylight
23 Oct - 15:23:37 10° WNW 15:26:50 58° SSW 15:30:03 10° SE daylight
24 Oct - 08:07:39 10° SE 08:08:10 10° SE 08:08:43 10° ESE daylight
24 Oct - 09:40:52 10° SW 09:44:05 66° SSE 09:47:20 10° ENE daylight
24 Oct - 11:17:41 10° W 11:20:44 35° NNW 11:23:47 10° ENE daylight
24 Oct - 12:54:45 10° WNW 12:57:44 31° N 13:00:43 10° ENE daylight
24 Oct - 14:31:14 10° WNW 14:34:31 85° NNE 14:37:47 10° ESE daylight
24 Oct - 16:08:29 10° W 16:10:36 16° SW 16:12:44 10° S daylight
25 Oct - 08:48:46 10° SSW 08:51:48 37° SE 08:54:52 10° ENE daylight
25 Oct - 10:25:06 10° W 10:28:15 45° NNW 10:31:25 10° ENE daylight
25 Oct - 12:02:16 10° WNW 12:05:12 29° N 12:08:08 10° ENE daylight
25 Oct - 13:38:52 10° WNW 13:42:06 55° NNE 13:45:19 10° ESE daylight
25 Oct - 15:15:35 10° W 15:18:25 28° SW 15:21:16 10° SSE daylight
26 Oct - 07:56:59 10° S 07:59:35 22° SE 08:02:10 10° E daylight
26 Oct - 09:32:34 10° WSW 09:35:48 66° NNW 09:39:03 10° ENE daylight
26 Oct - 11:09:43 10° WNW 11:12:39 30° N 11:15:35 10° ENE daylight
26 Oct - 12:46:30 10° WNW 12:49:38 40° NNE 12:52:45 10° E daylight
26 Oct - 14:22:59 10° WNW 14:26:10 48° SW 14:29:19 10° SE daylight
27 Oct - 07:05:54 10° SSE 07:07:24 13° SE 07:08:55 10° ESE visible
27 Oct - 08:40:09 10° WSW 08:43:24 79° SSE 08:46:40 10° ENE daylight
27 Oct - 10:17:05 10° WNW 10:20:06 33° N 10:23:07 10° ENE daylight
27 Oct - 11:54:05 10° WNW 11:57:06 33° N 12:00:06 10° ENE daylight
27 Oct - 13:30:32 10° WNW 13:33:48 82° SSW 13:37:05 10° ESE daylight
27 Oct - 15:08:09 10° WSW 15:09:49 13° SW 15:11:30 10° SSW daylight
